owner,sensor,date,latitude,longitude,vertical_datum,sea_water_practical_salinity,qcFlag 
WAVCIS,ioos:station:WAVCIS:CSI16:2,2010-09-01T00:00:00Z,29.4012,-89.0355,1.0,28.745,11111222 
WAVCIS,ioos:station:WAVCIS:CSI16:2,2010-09-01T00:15:00Z,29.4012,-89.0355,1.0,28.729,11111222 
WAVCIS,ioos:station:WAVCIS:CSI16:2,2010-09-01T00:30:00Z,29.4012,-89.0355,1.0,28.758,11111222 
WAVCIS,ioos:station:WAVCIS:CSI16:2,2010-09-01T00:45:00Z,29.4012,-89.0355,1.0,28.712,11111222 
WAVCIS,ioos:station:WAVCIS:CSI16:2,2010-09-01T01:00:00Z,29.4012,-89.0355,1.0,28.697,11111222 
WAVCIS,ioos:station:WAVCIS:CSI16:2,2010-09-01T01:15:00Z,29.4012,-89.0355,1.0,28.682,11111222 
WAVCIS,ioos:station:WAVCIS:CSI16:2,2010-09-01T01:30:00Z,29.4012,-89.0355,1.0,28.69,11111222 
WAVCIS,ioos:station:WAVCIS:CSI16:2,2010-09-01T01:45:00Z,29.4012,-89.0355,1.0,28.684,11111222 
WAVCIS,ioos:station:WAVCIS:CSI16:2,2010-09-01T02:00:00Z,29.4012,-89.0355,1.0,28.696,11111222 
WAVCIS,ioos:station:WAVCIS:CSI16:2,2010-09-01T02:15:00Z,29.4012,-89.0355,1.0,28.683,11111222 
WAVCIS,ioos:station:WAVCIS:CSI16:2,2010-09-01T02:30:00Z,29.4012,-89.0355,1.0,28.662,11111222 
WAVCIS,ioos:station:WAVCIS:CSI16:2,2010-09-01T02:45:00Z,29.4012,-89.0355,1.0,28.671,11111222 
WAVCIS,ioos:station:WAVCIS:CSI16:2,2010-09-01T03:00:00Z,29.4012,-89.0355,1.0,28.66,11111222 
WAVCIS,ioos:station:WAVCIS:CSI16:2,2010-09-01T03:15:00Z,29.4012,-89.0355,1.0,28.664,11111222 
WAVCIS,ioos:station:WAVCIS:CSI16:2,2010-09-01T03:30:00Z,29.4012,-89.0355,1.0,28.651,11111222 
WAVCIS,ioos:station:WAVCIS:CSI16:2,2010-09-01T03:45:00Z,29.4012,-89.0355,1.0,28.635,11111222 
WAVCIS,ioos:station:WAVCIS:CSI16:2,2010-09-01T04:00:00Z,29.4012,-89.0355,1.0,28.635,11111222 
WAVCIS,ioos:station:WAVCIS:CSI16:2,2010-09-01T04:15:00Z,29.4012,-89.0355,1.0,28.639,11111222 
WAVCIS,ioos:station:WAVCIS:CSI16:2,2010-09-01T04:30:00Z,29.4012,-89.0355,1.0,28.634,11111222 
WAVCIS,ioos:station:WAVCIS:CSI16:2,2010-09-01T04:45:00Z,29.4012,-89.0355,1.0,28.624,11111222 
WAVCIS,ioos:station:WAVCIS:CSI16:2,2010-09-01T05:00:00Z,29.4012,-89.0355,1.0,28.635,11111222 
WAVCIS,ioos:station:WAVCIS:CSI16:2,2010-09-01T05:15:00Z,29.4012,-89.0355,1.0,28.63,11111222 
WAVCIS,ioos:station:WAVCIS:CSI16:2,2010-09-01T05:30:00Z,29.4012,-89.0355,1.0,28.636,11111222 
WAVCIS,ioos:station:WAVCIS:CSI16:2,2010-09-01T05:45:00Z,29.4012,-89.0355,1.0,28.634,11111222 
WAVCIS,ioos:station:WAVCIS:CSI16:2,2010-09-01T06:00:00Z,29.4012,-89.0355,1.0,28.641,11111222 
WAVCIS,ioos:station:WAVCIS:CSI16:2,2010-09-01T06:15:00Z,29.4012,-89.0355,1.0,28.651,11111222 
WAVCIS,ioos:station:WAVCIS:CSI16:2,2010-09-01T06:30:00Z,29.4012,-89.0355,1.0,28.687,11111222 
WAVCIS,ioos:station:WAVCIS:CSI16:2,2010-09-01T06:45:00Z,29.4012,-89.0355,1.0,28.666,11111222 
WAVCIS,ioos:station:WAVCIS:CSI16:2,2010-09-01T07:00:00Z,29.4012,-89.0355,1.0,28.663,11111222 
WAVCIS,ioos:station:WAVCIS:CSI16:2,2010-09-01T07:15:00Z,29.4012,-89.0355,1.0,28.651,11111222 
WAVCIS,ioos:station:WAVCIS:CSI16:2,2010-09-01T07:30:00Z,29.4012,-89.0355,1.0,28.637,11111222 
WAVCIS,ioos:station:WAVCIS:CSI16:2,2010-09-01T07:45:00Z,29.4012,-89.0355,1.0,28.633,11111222 
WAVCIS,ioos:station:WAVCIS:CSI16:2,2010-09-01T08:00:00Z,29.4012,-89.0355,1.0,28.622,11111222 
WAVCIS,ioos:station:WAVCIS:CSI16:2,2010-09-01T08:15:00Z,29.4012,-89.0355,1.0,28.62,11111222 
WAVCIS,ioos:station:WAVCIS:CSI16:2,2010-09-01T08:30:00Z,29.4012,-89.0355,1.0,28.607,11111222 
WAVCIS,ioos:station:WAVCIS:CSI16:2,2010-09-01T08:45:00Z,29.4012,-89.0355,1.0,28.607,11111222 
WAVCIS,ioos:station:WAVCIS:CSI16:2,2010-09-01T09:00:00Z,29.4012,-89.0355,1.0,28.606,11111222 
WAVCIS,ioos:station:WAVCIS:CSI16:2,2010-09-01T09:15:00Z,29.4012,-89.0355,1.0,28.597,11111222 
WAVCIS,ioos:station:WAVCIS:CSI16:2,2010-09-01T09:30:00Z,29.4012,-89.0355,1.0,28.6,11111222 
WAVCIS,ioos:station:WAVCIS:CSI16:2,2010-09-01T09:45:00Z,29.4012,-89.0355,1.0,28.596,11111222 
WAVCIS,ioos:station:WAVCIS:CSI16:2,2010-09-01T10:00:00Z,29.4012,-89.0355,1.0,28.596,11111222 
WAVCIS,ioos:station:WAVCIS:CSI16:2,2010-09-01T10:15:00Z,29.4012,-89.0355,1.0,28.593,11111222 
WAVCIS,ioos:station:WAVCIS:CSI16:2,2010-09-01T10:30:00Z,29.4012,-89.0355,1.0,28.589,11111222 
WAVCIS,ioos:station:WAVCIS:CSI16:2,2010-09-01T10:45:00Z,29.4012,-89.0355,1.0,28.595,11111222 
WAVCIS,ioos:station:WAVCIS:CSI16:2,2010-09-01T11:00:00Z,29.4012,-89.0355,1.0,28.594,11111222 
WAVCIS,ioos:station:WAVCIS:CSI16:2,2010-09-01T11:15:00Z,29.4012,-89.0355,1.0,28.597,11111222 
WAVCIS,ioos:station:WAVCIS:CSI16:2,2010-09-01T11:30:00Z,29.4012,-89.0355,1.0,28.599,11111222 
WAVCIS,ioos:station:WAVCIS:CSI16:2,2010-09-01T11:45:00Z,29.4012,-89.0355,1.0,28.599,11111222 
WAVCIS,ioos:station:WAVCIS:CSI16:2,2010-09-01T12:00:00Z,29.4012,-89.0355,1.0,28.602,11111222 
WAVCIS,ioos:station:WAVCIS:CSI16:2,2010-09-01T12:15:00Z,29.4012,-89.0355,1.0,28.603,11111222 
WAVCIS,ioos:station:WAVCIS:CSI16:2,2010-09-01T12:30:00Z,29.4012,-89.0355,1.0,28.6,11111222 
WAVCIS,ioos:station:WAVCIS:CSI16:2,2010-09-01T12:45:00Z,29.4012,-89.0355,1.0,28.601,11111222 
WAVCIS,ioos:station:WAVCIS:CSI16:2,2010-09-01T13:00:00Z,29.4012,-89.0355,1.0,28.604,11111222 
WAVCIS,ioos:station:WAVCIS:CSI16:2,2010-09-01T13:15:00Z,29.4012,-89.0355,1.0,28.597,11111222 
WAVCIS,ioos:station:WAVCIS:CSI16:2,2010-09-01T13:30:00Z,29.4012,-89.0355,1.0,28.595,11111222 
WAVCIS,ioos:station:WAVCIS:CSI16:2,2010-09-01T13:45:00Z,29.4012,-89.0355,1.0,28.596,11111222 
WAVCIS,ioos:station:WAVCIS:CSI16:2,2010-09-01T14:00:00Z,29.4012,-89.0355,1.0,28.601,11111222 
WAVCIS,ioos:station:WAVCIS:CSI16:2,2010-09-01T14:15:00Z,29.4012,-89.0355,1.0,28.542,11111222 
WAVCIS,ioos:station:WAVCIS:CSI16:2,2010-09-01T14:30:00Z,29.4012,-89.0355,1.0,28.507,11111222 
WAVCIS,ioos:station:WAVCIS:CSI16:2,2010-09-01T14:45:00Z,29.4012,-89.0355,1.0,28.518,11111222 
WAVCIS,ioos:station:WAVCIS:CSI16:2,2010-09-01T15:00:00Z,29.4012,-89.0355,1.0,28.503,11111222 
WAVCIS,ioos:station:WAVCIS:CSI16:2,2010-09-01T15:15:00Z,29.4012,-89.0355,1.0,28.543,11111222 
WAVCIS,ioos:station:WAVCIS:CSI16:2,2010-09-01T15:30:00Z,29.4012,-89.0355,1.0,28.53,11111222 
WAVCIS,ioos:station:WAVCIS:CSI16:2,2010-09-01T15:45:00Z,29.4012,-89.0355,1.0,28.564,11111222 
WAVCIS,ioos:station:WAVCIS:CSI16:2,2010-09-01T16:00:00Z,29.4012,-89.0355,1.0,28.576,11111222 
WAVCIS,ioos:station:WAVCIS:CSI16:2,2010-09-01T16:15:00Z,29.4012,-89.0355,1.0,28.584,11111222 
WAVCIS,ioos:station:WAVCIS:CSI16:2,2010-09-01T16:30:00Z,29.4012,-89.0355,1.0,28.581,11111222 
WAVCIS,ioos:station:WAVCIS:CSI16:2,2010-09-01T16:45:00Z,29.4012,-89.0355,1.0,28.595,11111222 
WAVCIS,ioos:station:WAVCIS:CSI16:2,2010-09-01T17:00:00Z,29.4012,-89.0355,1.0,28.598,11111222 
WAVCIS,ioos:station:WAVCIS:CSI16:2,2010-09-01T17:15:00Z,29.4012,-89.0355,1.0,28.608,11111222 
WAVCIS,ioos:station:WAVCIS:CSI16:2,2010-09-01T17:30:00Z,29.4012,-89.0355,1.0,28.605,11111222 
WAVCIS,ioos:station:WAVCIS:CSI16:2,2010-09-01T17:45:00Z,29.4012,-89.0355,1.0,28.596,11111222 
WAVCIS,ioos:station:WAVCIS:CSI16:2,2010-09-01T18:00:00Z,29.4012,-89.0355,1.0,28.6,11111222 
WAVCIS,ioos:station:WAVCIS:CSI16:2,2010-09-01T18:15:00Z,29.4012,-89.0355,1.0,28.605,11111222 
WAVCIS,ioos:station:WAVCIS:CSI16:2,2010-09-01T18:30:00Z,29.4012,-89.0355,1.0,28.614,11111222 
WAVCIS,ioos:station:WAVCIS:CSI16:2,2010-09-01T18:45:00Z,29.4012,-89.0355,1.0,28.615,11111222 
WAVCIS,ioos:station:WAVCIS:CSI16:2,2010-09-01T19:00:00Z,29.4012,-89.0355,1.0,28.628,11111222 
WAVCIS,ioos:station:WAVCIS:CSI16:2,2010-09-01T19:15:00Z,29.4012,-89.0355,1.0,28.625,11111222 
WAVCIS,ioos:station:WAVCIS:CSI16:2,2010-09-01T19:30:00Z,29.4012,-89.0355,1.0,28.634,11111222 
WAVCIS,ioos:station:WAVCIS:CSI16:2,2010-09-01T19:45:00Z,29.4012,-89.0355,1.0,28.667,11111222 
WAVCIS,ioos:station:WAVCIS:CSI16:2,2010-09-01T20:00:00Z,29.4012,-89.0355,1.0,28.671,11111222 
WAVCIS,ioos:station:WAVCIS:CSI16:2,2010-09-01T20:15:00Z,29.4012,-89.0355,1.0,28.665,11111222 
WAVCIS,ioos:station:WAVCIS:CSI16:2,2010-09-01T20:30:00Z,29.4012,-89.0355,1.0,28.654,11111222 
WAVCIS,ioos:station:WAVCIS:CSI16:2,2010-09-01T20:45:00Z,29.4012,-89.0355,1.0,28.689,11111222 
WAVCIS,ioos:station:WAVCIS:CSI16:2,2010-09-01T21:00:00Z,29.4012,-89.0355,1.0,28.656,11111222 
WAVCIS,ioos:station:WAVCIS:CSI16:2,2010-09-01T21:15:00Z,29.4012,-89.0355,1.0,28.649,11111222 
WAVCIS,ioos:station:WAVCIS:CSI16:2,2010-09-01T21:30:00Z,29.4012,-89.0355,1.0,28.67,11111222 
WAVCIS,ioos:station:WAVCIS:CSI16:2,2010-09-01T21:45:00Z,29.4012,-89.0355,1.0,28.651,11111222 
WAVCIS,ioos:station:WAVCIS:CSI16:2,2010-09-01T22:00:00Z,29.4012,-89.0355,1.0,28.649,11111222 
WAVCIS,ioos:station:WAVCIS:CSI16:2,2010-09-01T22:15:00Z,29.4012,-89.0355,1.0,28.732,11111222 
WAVCIS,ioos:station:WAVCIS:CSI16:2,2010-09-01T22:30:00Z,29.4012,-89.0355,1.0,28.741,11111222 
WAVCIS,ioos:station:WAVCIS:CSI16:2,2010-09-01T22:45:00Z,29.4012,-89.0355,1.0,28.758,11111222 
WAVCIS,ioos:station:WAVCIS:CSI16:2,2010-09-01T23:00:00Z,29.4012,-89.0355,1.0,28.721,11111222 
WAVCIS,ioos:station:WAVCIS:CSI16:2,2010-09-01T23:15:00Z,29.4012,-89.0355,1.0,28.669,11111222 
WAVCIS,ioos:station:WAVCIS:CSI16:2,2010-09-01T23:30:00Z,29.4012,-89.0355,1.0,28.715,11111222 
WAVCIS,ioos:station:WAVCIS:CSI16:2,2010-09-01T23:45:00Z,29.4012,-89.0355,1.0,28.717,11111222 
WAVCIS,ioos:station:WAVCIS:CSI16:2,2010-09-02T00:00:00Z,29.4012,-89.0355,1.0,28.688,11111222 
WAVCIS,ioos:station:WAVCIS:CSI16:2,2010-09-02T00:15:00Z,29.4012,-89.0355,1.0,28.638,11111222 
WAVCIS,ioos:station:WAVCIS:CSI16:2,2010-09-02T00:30:00Z,29.4012,-89.0355,1.0,28.633,11111222 
WAVCIS,ioos:station:WAVCIS:CSI16:2,2010-09-02T00:45:00Z,29.4012,-89.0355,1.0,28.635,11111222 
WAVCIS,ioos:station:WAVCIS:CSI16:2,2010-09-02T01:00:00Z,29.4012,-89.0355,1.0,28.616,11111222 
WAVCIS,ioos:station:WAVCIS:CSI16:2,2010-09-02T01:15:00Z,29.4012,-89.0355,1.0,28.611,11111222 
WAVCIS,ioos:station:WAVCIS:CSI16:2,2010-09-02T01:30:00Z,29.4012,-89.0355,1.0,28.607,11111222 
WAVCIS,ioos:station:WAVCIS:CSI16:2,2010-09-02T01:45:00Z,29.4012,-89.0355,1.0,28.602,11111222 
WAVCIS,ioos:station:WAVCIS:CSI16:2,2010-09-02T02:00:00Z,29.4012,-89.0355,1.0,28.595,11111222 
WAVCIS,ioos:station:WAVCIS:CSI16:2,2010-09-02T02:15:00Z,29.4012,-89.0355,1.0,28.607,11111222 
WAVCIS,ioos:station:WAVCIS:CSI16:2,2010-09-02T02:30:00Z,29.4012,-89.0355,1.0,28.586,11111222 
WAVCIS,ioos:station:WAVCIS:CSI16:2,2010-09-02T02:45:00Z,29.4012,-89.0355,1.0,28.58,11111222 
WAVCIS,ioos:station:WAVCIS:CSI16:2,2010-09-02T03:00:00Z,29.4012,-89.0355,1.0,28.56,11111222 
WAVCIS,ioos:station:WAVCIS:CSI16:2,2010-09-02T03:15:00Z,29.4012,-89.0355,1.0,28.557,11111222 
WAVCIS,ioos:station:WAVCIS:CSI16:2,2010-09-02T03:30:00Z,29.4012,-89.0355,1.0,28.541,11111222 
WAVCIS,ioos:station:WAVCIS:CSI16:2,2010-09-02T03:45:00Z,29.4012,-89.0355,1.0,28.532,11111222 
WAVCIS,ioos:station:WAVCIS:CSI16:2,2010-09-02T04:00:00Z,29.4012,-89.0355,1.0,28.525,11111222 
WAVCIS,ioos:station:WAVCIS:CSI16:2,2010-09-02T04:15:00Z,29.4012,-89.0355,1.0,28.512,11111222 
WAVCIS,ioos:station:WAVCIS:CSI16:2,2010-09-02T04:30:00Z,29.4012,-89.0355,1.0,28.499,11111222 
WAVCIS,ioos:station:WAVCIS:CSI16:2,2010-09-02T04:45:00Z,29.4012,-89.0355,1.0,28.499,11111222 
WAVCIS,ioos:station:WAVCIS:CSI16:2,2010-09-02T05:00:00Z,29.4012,-89.0355,1.0,28.496,11111222 
WAVCIS,ioos:station:WAVCIS:CSI16:2,2010-09-02T05:15:00Z,29.4012,-89.0355,1.0,28.488,11111222 
WAVCIS,ioos:station:WAVCIS:CSI16:2,2010-09-02T05:30:00Z,29.4012,-89.0355,1.0,28.491,11111222 
WAVCIS,ioos:station:WAVCIS:CSI16:2,2010-09-02T05:45:00Z,29.4012,-89.0355,1.0,28.485,11111222 
WAVCIS,ioos:station:WAVCIS:CSI16:2,2010-09-02T06:00:00Z,29.4012,-89.0355,1.0,28.497,11111222 
WAVCIS,ioos:station:WAVCIS:CSI16:2,2010-09-02T06:15:00Z,29.4012,-89.0355,1.0,28.489,11111222 
WAVCIS,ioos:station:WAVCIS:CSI16:2,2010-09-02T06:30:00Z,29.4012,-89.0355,1.0,28.489,11111222 
WAVCIS,ioos:station:WAVCIS:CSI16:2,2010-09-02T06:45:00Z,29.4012,-89.0355,1.0,28.481,11111222 
WAVCIS,ioos:station:WAVCIS:CSI16:2,2010-09-02T07:00:00Z,29.4012,-89.0355,1.0,28.48,11111222 
WAVCIS,ioos:station:WAVCIS:CSI16:2,2010-09-02T07:15:00Z,29.4012,-89.0355,1.0,28.351,11111222 
WAVCIS,ioos:station:WAVCIS:CSI16:2,2010-09-02T07:30:00Z,29.4012,-89.0355,1.0,28.442,11111222 
WAVCIS,ioos:station:WAVCIS:CSI16:2,2010-09-02T07:45:00Z,29.4012,-89.0355,1.0,28.402,11111222 
WAVCIS,ioos:station:WAVCIS:CSI16:2,2010-09-02T08:00:00Z,29.4012,-89.0355,1.0,28.33,11111222 
WAVCIS,ioos:station:WAVCIS:CSI16:2,2010-09-02T08:15:00Z,29.4012,-89.0355,1.0,28.322,11111222 
WAVCIS,ioos:station:WAVCIS:CSI16:2,2010-09-02T08:30:00Z,29.4012,-89.0355,1.0,28.134,11111222 
WAVCIS,ioos:station:WAVCIS:CSI16:2,2010-09-02T08:45:00Z,29.4012,-89.0355,1.0,28.134,11111222 
WAVCIS,ioos:station:WAVCIS:CSI16:2,2010-09-02T09:00:00Z,29.4012,-89.0355,1.0,27.883,11111222 
WAVCIS,ioos:station:WAVCIS:CSI16:2,2010-09-02T09:15:00Z,29.4012,-89.0355,1.0,28.149,11111222 
WAVCIS,ioos:station:WAVCIS:CSI16:2,2010-09-02T09:30:00Z,29.4012,-89.0355,1.0,28.288,11111222 
WAVCIS,ioos:station:WAVCIS:CSI16:2,2010-09-02T09:45:00Z,29.4012,-89.0355,1.0,28.293,11111222 
WAVCIS,ioos:station:WAVCIS:CSI16:2,2010-09-02T10:00:00Z,29.4012,-89.0355,1.0,28.388,11111222 
WAVCIS,ioos:station:WAVCIS:CSI16:2,2010-09-02T10:15:00Z,29.4012,-89.0355,1.0,28.383,11111222 
WAVCIS,ioos:station:WAVCIS:CSI16:2,2010-09-02T10:30:00Z,29.4012,-89.0355,1.0,28.366,11111222 
WAVCIS,ioos:station:WAVCIS:CSI16:2,2010-09-02T10:45:00Z,29.4012,-89.0355,1.0,28.404,11111222 
WAVCIS,ioos:station:WAVCIS:CSI16:2,2010-09-02T11:00:00Z,29.4012,-89.0355,1.0,28.405,11111222 
WAVCIS,ioos:station:WAVCIS:CSI16:2,2010-09-02T11:15:00Z,29.4012,-89.0355,1.0,28.416,11111222 
WAVCIS,ioos:station:WAVCIS:CSI16:2,2010-09-02T11:30:00Z,29.4012,-89.0355,1.0,28.412,11111222 
WAVCIS,ioos:station:WAVCIS:CSI16:2,2010-09-02T11:45:00Z,29.4012,-89.0355,1.0,28.421,11111222 
WAVCIS,ioos:station:WAVCIS:CSI16:2,2010-09-02T12:00:00Z,29.4012,-89.0355,1.0,28.329,11111222 
WAVCIS,ioos:station:WAVCIS:CSI16:2,2010-09-02T12:15:00Z,29.4012,-89.0355,1.0,28.371,11111222 
WAVCIS,ioos:station:WAVCIS:CSI16:2,2010-09-02T12:30:00Z,29.4012,-89.0355,1.0,28.365,11111222 
WAVCIS,ioos:station:WAVCIS:CSI16:2,2010-09-02T12:45:00Z,29.4012,-89.0355,1.0,28.427,11111222 
WAVCIS,ioos:station:WAVCIS:CSI16:2,2010-09-02T13:00:00Z,29.4012,-89.0355,1.0,28.436,11111222 
WAVCIS,ioos:station:WAVCIS:CSI16:2,2010-09-02T13:15:00Z,29.4012,-89.0355,1.0,28.441,11111222 
WAVCIS,ioos:station:WAVCIS:CSI16:2,2010-09-02T13:30:00Z,29.4012,-89.0355,1.0,28.444,11111222 
WAVCIS,ioos:station:WAVCIS:CSI16:2,2010-09-02T13:45:00Z,29.4012,-89.0355,1.0,28.428,11111222 
WAVCIS,ioos:station:WAVCIS:CSI16:2,2010-09-02T14:00:00Z,29.4012,-89.0355,1.0,28.432,11111222 
WAVCIS,ioos:station:WAVCIS:CSI16:2,2010-09-02T14:15:00Z,29.4012,-89.0355,1.0,28.415,11111222 
WAVCIS,ioos:station:WAVCIS:CSI16:2,2010-09-02T14:30:00Z,29.4012,-89.0355,1.0,28.444,11111222 
WAVCIS,ioos:station:WAVCIS:CSI16:2,2010-09-02T14:45:00Z,29.4012,-89.0355,1.0,28.413,11111222 
WAVCIS,ioos:station:WAVCIS:CSI16:2,2010-09-02T15:00:00Z,29.4012,-89.0355,1.0,28.428,11111222 
WAVCIS,ioos:station:WAVCIS:CSI16:2,2010-09-02T15:15:00Z,29.4012,-89.0355,1.0,28.308,11111222 
WAVCIS,ioos:station:WAVCIS:CSI16:2,2010-09-02T15:30:00Z,29.4012,-89.0355,1.0,28.382,11111222 
WAVCIS,ioos:station:WAVCIS:CSI16:2,2010-09-02T15:45:00Z,29.4012,-89.0355,1.0,28.351,11111222 
WAVCIS,ioos:station:WAVCIS:CSI16:2,2010-09-02T16:00:00Z,29.4012,-89.0355,1.0,28.145,11111222 
WAVCIS,ioos:station:WAVCIS:CSI16:2,2010-09-02T16:15:00Z,29.4012,-89.0355,1.0,28.274,11111222 
WAVCIS,ioos:station:WAVCIS:CSI16:2,2010-09-02T16:30:00Z,29.4012,-89.0355,1.0,28.16,11111222 
WAVCIS,ioos:station:WAVCIS:CSI16:2,2010-09-02T16:45:00Z,29.4012,-89.0355,1.0,28.182,11111222 
WAVCIS,ioos:station:WAVCIS:CSI16:2,2010-09-02T17:00:00Z,29.4012,-89.0355,1.0,28.287,11111222 
WAVCIS,ioos:station:WAVCIS:CSI16:2,2010-09-02T17:15:00Z,29.4012,-89.0355,1.0,28.328,11111222 
WAVCIS,ioos:station:WAVCIS:CSI16:2,2010-09-02T17:30:00Z,29.4012,-89.0355,1.0,28.407,11111222 
WAVCIS,ioos:station:WAVCIS:CSI16:2,2010-09-02T17:45:00Z,29.4012,-89.0355,1.0,28.404,11111222 
WAVCIS,ioos:station:WAVCIS:CSI16:2,2010-09-02T18:00:00Z,29.4012,-89.0355,1.0,28.399,11111222 
WAVCIS,ioos:station:WAVCIS:CSI16:2,2010-09-02T18:15:00Z,29.4012,-89.0355,1.0,28.4,11111222 
WAVCIS,ioos:station:WAVCIS:CSI16:2,2010-09-02T18:30:00Z,29.4012,-89.0355,1.0,28.431,11111222 
WAVCIS,ioos:station:WAVCIS:CSI16:2,2010-09-02T18:45:00Z,29.4012,-89.0355,1.0,28.419,11111222 
WAVCIS,ioos:station:WAVCIS:CSI16:2,2010-09-02T19:00:00Z,29.4012,-89.0355,1.0,28.419,11111222 
WAVCIS,ioos:station:WAVCIS:CSI16:2,2010-09-02T19:15:00Z,29.4012,-89.0355,1.0,28.438,11111222 
WAVCIS,ioos:station:WAVCIS:CSI16:2,2010-09-02T19:30:00Z,29.4012,-89.0355,1.0,28.404,11111222 
WAVCIS,ioos:station:WAVCIS:CSI16:2,2010-09-02T19:45:00Z,29.4012,-89.0355,1.0,28.434,11111222 
WAVCIS,ioos:station:WAVCIS:CSI16:2,2010-09-02T20:00:00Z,29.4012,-89.0355,1.0,28.357,11111222 
WAVCIS,ioos:station:WAVCIS:CSI16:2,2010-09-02T20:15:00Z,29.4012,-89.0355,1.0,28.278,11111222 
WAVCIS,ioos:station:WAVCIS:CSI16:2,2010-09-02T20:30:00Z,29.4012,-89.0355,1.0,28.302,11111222 
WAVCIS,ioos:station:WAVCIS:CSI16:2,2010-09-02T20:45:00Z,29.4012,-89.0355,1.0,28.308,11111222 
WAVCIS,ioos:station:WAVCIS:CSI16:2,2010-09-02T21:00:00Z,29.4012,-89.0355,1.0,28.32,11111222 
WAVCIS,ioos:station:WAVCIS:CSI16:2,2010-09-02T21:15:00Z,29.4012,-89.0355,1.0,28.351,11111222 
WAVCIS,ioos:station:WAVCIS:CSI16:2,2010-09-02T21:30:00Z,29.4012,-89.0355,1.0,28.389,11111222 
WAVCIS,ioos:station:WAVCIS:CSI16:2,2010-09-02T21:45:00Z,29.4012,-89.0355,1.0,28.364,11111222 
WAVCIS,ioos:station:WAVCIS:CSI16:2,2010-09-02T22:00:00Z,29.4012,-89.0355,1.0,28.329,11111222 
WAVCIS,ioos:station:WAVCIS:CSI16:2,2010-09-02T22:15:00Z,29.4012,-89.0355,1.0,28.4,11111222 
WAVCIS,ioos:station:WAVCIS:CSI16:2,2010-09-02T22:30:00Z,29.4012,-89.0355,1.0,28.402,11111222 
WAVCIS,ioos:station:WAVCIS:CSI16:2,2010-09-02T22:45:00Z,29.4012,-89.0355,1.0,28.284,11111222 
WAVCIS,ioos:station:WAVCIS:CSI16:2,2010-09-02T23:00:00Z,29.4012,-89.0355,1.0,28.226,11111222 
WAVCIS,ioos:station:WAVCIS:CSI16:2,2010-09-02T23:15:00Z,29.4012,-89.0355,1.0,28.254,11111222 
WAVCIS,ioos:station:WAVCIS:CSI16:2,2010-09-02T23:30:00Z,29.4012,-89.0355,1.0,28.301,11111222 
WAVCIS,ioos:station:WAVCIS:CSI16:2,2010-09-02T23:45:00Z,29.4012,-89.0355,1.0,28.302,11111222 
WAVCIS,ioos:station:WAVCIS:CSI16:2,2010-09-03T00:00:00Z,29.4012,-89.0355,1.0,28.32,11111222 
WAVCIS,ioos:station:WAVCIS:CSI16:2,2010-09-03T00:15:00Z,29.4012,-89.0355,1.0,28.333,11111222 
WAVCIS,ioos:station:WAVCIS:CSI16:2,2010-09-03T00:30:00Z,29.4012,-89.0355,1.0,28.341,11111222 
WAVCIS,ioos:station:WAVCIS:CSI16:2,2010-09-03T00:45:00Z,29.4012,-89.0355,1.0,28.356,11111222 
WAVCIS,ioos:station:WAVCIS:CSI16:2,2010-09-03T01:00:00Z,29.4012,-89.0355,1.0,28.368,11111222 
WAVCIS,ioos:station:WAVCIS:CSI16:2,2010-09-03T01:15:00Z,29.4012,-89.0355,1.0,28.379,11111222 
WAVCIS,ioos:station:WAVCIS:CSI16:2,2010-09-03T01:30:00Z,29.4012,-89.0355,1.0,28.392,11111222 
WAVCIS,ioos:station:WAVCIS:CSI16:2,2010-09-03T01:45:00Z,29.4012,-89.0355,1.0,28.393,11111222 
WAVCIS,ioos:station:WAVCIS:CSI16:2,2010-09-03T02:00:00Z,29.4012,-89.0355,1.0,28.392,11111222 
WAVCIS,ioos:station:WAVCIS:CSI16:2,2010-09-03T02:15:00Z,29.4012,-89.0355,1.0,28.386,11111222 
WAVCIS,ioos:station:WAVCIS:CSI16:2,2010-09-03T02:30:00Z,29.4012,-89.0355,1.0,28.387,11111222 
WAVCIS,ioos:station:WAVCIS:CSI16:2,2010-09-03T02:45:00Z,29.4012,-89.0355,1.0,28.395,11111222 
WAVCIS,ioos:station:WAVCIS:CSI16:2,2010-09-03T03:00:00Z,29.4012,-89.0355,1.0,28.407,11111222 
WAVCIS,ioos:station:WAVCIS:CSI16:2,2010-09-03T03:15:00Z,29.4012,-89.0355,1.0,28.416,11111222 
WAVCIS,ioos:station:WAVCIS:CSI16:2,2010-09-03T03:30:00Z,29.4012,-89.0355,1.0,28.424,11111222 
WAVCIS,ioos:station:WAVCIS:CSI16:2,2010-09-03T03:45:00Z,29.4012,-89.0355,1.0,28.428,11111222 
WAVCIS,ioos:station:WAVCIS:CSI16:2,2010-09-03T04:00:00Z,29.4012,-89.0355,1.0,28.435,11111222 
WAVCIS,ioos:station:WAVCIS:CSI16:2,2010-09-03T04:15:00Z,29.4012,-89.0355,1.0,28.436,11111222 
WAVCIS,ioos:station:WAVCIS:CSI16:2,2010-09-03T04:30:00Z,29.4012,-89.0355,1.0,28.443,11111222 
WAVCIS,ioos:station:WAVCIS:CSI16:2,2010-09-03T04:45:00Z,29.4012,-89.0355,1.0,28.443,11111222 
WAVCIS,ioos:station:WAVCIS:CSI16:2,2010-09-03T05:00:00Z,29.4012,-89.0355,1.0,28.442,11111222 
WAVCIS,ioos:station:WAVCIS:CSI16:2,2010-09-03T05:15:00Z,29.4012,-89.0355,1.0,28.439,11111222 
WAVCIS,ioos:station:WAVCIS:CSI16:2,2010-09-03T05:30:00Z,29.4012,-89.0355,1.0,28.434,11111222 
WAVCIS,ioos:station:WAVCIS:CSI16:2,2010-09-03T05:45:00Z,29.4012,-89.0355,1.0,28.433,11111222 
WAVCIS,ioos:station:WAVCIS:CSI16:2,2010-09-03T06:00:00Z,29.4012,-89.0355,1.0,28.422,11111222 
WAVCIS,ioos:station:WAVCIS:CSI16:2,2010-09-03T06:15:00Z,29.4012,-89.0355,1.0,28.409,11111222 
WAVCIS,ioos:station:WAVCIS:CSI16:2,2010-09-03T06:30:00Z,29.4012,-89.0355,1.0,28.384,11111222 
WAVCIS,ioos:station:WAVCIS:CSI16:2,2010-09-03T06:45:00Z,29.4012,-89.0355,1.0,28.419,11111222 
WAVCIS,ioos:station:WAVCIS:CSI16:2,2010-09-03T07:00:00Z,29.4012,-89.0355,1.0,28.407,11111222 
WAVCIS,ioos:station:WAVCIS:CSI16:2,2010-09-03T07:15:00Z,29.4012,-89.0355,1.0,28.402,11111222 
WAVCIS,ioos:station:WAVCIS:CSI16:2,2010-09-03T07:30:00Z,29.4012,-89.0355,1.0,28.398,11111222 
WAVCIS,ioos:station:WAVCIS:CSI16:2,2010-09-03T07:45:00Z,29.4012,-89.0355,1.0,28.391,11111222 
WAVCIS,ioos:station:WAVCIS:CSI16:2,2010-09-03T08:00:00Z,29.4012,-89.0355,1.0,28.402,11111222 
WAVCIS,ioos:station:WAVCIS:CSI16:2,2010-09-03T08:15:00Z,29.4012,-89.0355,1.0,28.39,11111222 
WAVCIS,ioos:station:WAVCIS:CSI16:2,2010-09-03T08:30:00Z,29.4012,-89.0355,1.0,28.368,11111222 
WAVCIS,ioos:station:WAVCIS:CSI16:2,2010-09-03T08:45:00Z,29.4012,-89.0355,1.0,28.388,11111222 
WAVCIS,ioos:station:WAVCIS:CSI16:2,2010-09-03T09:00:00Z,29.4012,-89.0355,1.0,28.399,11111222 
WAVCIS,ioos:station:WAVCIS:CSI16:2,2010-09-03T09:15:00Z,29.4012,-89.0355,1.0,28.409,11111222 
WAVCIS,ioos:station:WAVCIS:CSI16:2,2010-09-03T09:30:00Z,29.4012,-89.0355,1.0,28.417,11111222 
WAVCIS,ioos:station:WAVCIS:CSI16:2,2010-09-03T09:45:00Z,29.4012,-89.0355,1.0,28.42,11111222 
WAVCIS,ioos:station:WAVCIS:CSI16:2,2010-09-03T10:00:00Z,29.4012,-89.0355,1.0,28.414,11111222 
WAVCIS,ioos:station:WAVCIS:CSI16:2,2010-09-03T10:15:00Z,29.4012,-89.0355,1.0,28.419,11111222 
WAVCIS,ioos:station:WAVCIS:CSI16:2,2010-09-03T10:30:00Z,29.4012,-89.0355,1.0,28.424,11111222 
WAVCIS,ioos:station:WAVCIS:CSI16:2,2010-09-03T10:45:00Z,29.4012,-89.0355,1.0,28.425,11111222 
WAVCIS,ioos:station:WAVCIS:CSI16:2,2010-09-03T11:00:00Z,29.4012,-89.0355,1.0,28.419,11111222 
WAVCIS,ioos:station:WAVCIS:CSI16:2,2010-09-03T11:15:00Z,29.4012,-89.0355,1.0,28.419,11111222 
WAVCIS,ioos:station:WAVCIS:CSI16:2,2010-09-03T11:30:00Z,29.4012,-89.0355,1.0,28.417,11111222 
WAVCIS,ioos:station:WAVCIS:CSI16:2,2010-09-03T11:45:00Z,29.4012,-89.0355,1.0,28.423,11111222 
WAVCIS,ioos:station:WAVCIS:CSI16:2,2010-09-03T12:00:00Z,29.4012,-89.0355,1.0,28.433,11111222 
WAVCIS,ioos:station:WAVCIS:CSI16:2,2010-09-03T12:15:00Z,29.4012,-89.0355,1.0,28.414,11111222 
WAVCIS,ioos:station:WAVCIS:CSI16:2,2010-09-03T12:30:00Z,29.4012,-89.0355,1.0,28.415,11111222 
WAVCIS,ioos:station:WAVCIS:CSI16:2,2010-09-03T12:45:00Z,29.4012,-89.0355,1.0,28.418,11111222 
WAVCIS,ioos:station:WAVCIS:CSI16:2,2010-09-03T13:00:00Z,29.4012,-89.0355,1.0,28.412,11111222 
WAVCIS,ioos:station:WAVCIS:CSI16:2,2010-09-03T13:15:00Z,29.4012,-89.0355,1.0,28.41,11111222 
WAVCIS,ioos:station:WAVCIS:CSI16:2,2010-09-03T13:30:00Z,29.4012,-89.0355,1.0,28.408,11111222 
WAVCIS,ioos:station:WAVCIS:CSI16:2,2010-09-03T13:45:00Z,29.4012,-89.0355,1.0,28.399,11111222 
WAVCIS,ioos:station:WAVCIS:CSI16:2,2010-09-03T14:00:00Z,29.4012,-89.0355,1.0,28.413,11111222 
WAVCIS,ioos:station:WAVCIS:CSI16:2,2010-09-03T14:15:00Z,29.4012,-89.0355,1.0,28.411,11111222 
WAVCIS,ioos:station:WAVCIS:CSI16:2,2010-09-03T14:30:00Z,29.4012,-89.0355,1.0,28.409,11111222 
WAVCIS,ioos:station:WAVCIS:CSI16:2,2010-09-03T14:45:00Z,29.4012,-89.0355,1.0,28.41,11111222 
WAVCIS,ioos:station:WAVCIS:CSI16:2,2010-09-03T15:00:00Z,29.4012,-89.0355,1.0,28.409,11111222 
WAVCIS,ioos:station:WAVCIS:CSI16:2,2010-09-03T15:15:00Z,29.4012,-89.0355,1.0,28.407,11111222 